Weather History for KONA - February, 2012

Change the Weather History Date:

Monday, February 20, 2012

  Actual Average Record
Temperature  
Mean Temperature 29 °F -  
Max Temperature 39 °F 33 °F 55 °F (2003)
Min Temperature 19 °F 15 °F -10 °F (1993)
Degree Days  
Heating Degree Days 36    
Moisture  
Dew Point 17 °F    
Average Humidity 62    
Maximum Humidity 86    
Minimum Humidity 33    
Precipitation  
Precipitation 0.00 in - - ()
Sea Level Pressure  
Sea Level Pressure 30.05 in    
Wind  
Wind Speed 5 mph (SE)    
Max Wind Speed 17 mph    
Max Gust Speed 25 mph    
Visibility 10 miles    
Events      
Averages and records for this station are not official NWS values.
T = Trace of Precipitation, MM = Missing Value Source: NWS Daily Summary

Daily Weather History Graph

Daily Weather History Graph

Search for Another Location

Airport or City:

Trip Planner

Search our weather history database for the weather conditions in past years. The results will help you decide how hot, cold, wet, or windy it might be!

Date:

Astronomy

Feb. 20, 2012 Rise Set
Actual Time 6:59 AM CST 5:42 PM CST
Civil Twilight 6:29 AM CST 6:12 PM CST
Nautical Twilight 5:56 AM CST 6:45 PM CST
Astronomical Twilight 5:22 AM CST 7:19 PM CST
Moon 5:57 AM CST (2/20) 4:47 PM CST (2/20)
Length of Visible Light 11h 42m
Length of Day
10h 43m
Waning Crescent, 1% of the Moon is Illuminated
Feb 20
Waning Crescent
Feb 21
New
Feb 29
First Quarter
Mar 8
Full
Mar 14
Last Quarter

Hourly Weather History & Observations

Time (CST) Temp. Windchill Dew Point Humidity Pressure Visibility Wind Dir Wind Speed Gust Speed Precip Events Conditions
12:17 AM 21.2 °F - 17.6 °F 86% 30.14 in 10.0 mi Calm Calm - N/A   Clear
12:38 AM 21.2 °F - 17.6 °F 86% 30.14 in 10.0 mi Calm Calm - N/A   Clear
12:58 AM 21.2 °F - 17.6 °F 86% 30.14 in 10.0 mi Calm Calm - N/A   Clear
1:17 AM 21.2 °F - 17.6 °F 86% 30.14 in 10.0 mi Calm Calm - N/A   Clear
1:38 AM 21.2 °F - 17.6 °F 86% 30.15 in 10.0 mi Calm Calm - N/A   Clear
1:57 AM 19.4 °F - 15.8 °F 86% 30.15 in 10.0 mi Calm Calm - N/A   Clear
2:18 AM 21.2 °F 14.9 °F 17.6 °F 86% 30.15 in 10.0 mi SE 4.6 mph - N/A   Clear
2:37 AM 21.2 °F - 17.6 °F 86% 30.16 in 10.0 mi Calm Calm - N/A   Clear
2:58 AM 21.2 °F - 17.6 °F 86% 30.16 in 10.0 mi Calm Calm - N/A   Clear
3:18 AM 21.2 °F - 17.6 °F 86% 30.16 in 10.0 mi Calm Calm - N/A   Clear
3:37 AM 21.2 °F - 17.6 °F 86% 30.17 in 10.0 mi Calm Calm - N/A   Clear
3:58 AM 21.2 °F - 17.6 °F 86% 30.16 in 10.0 mi Calm Calm - N/A   Clear
4:18 AM 19.4 °F 14.3 °F 14.0 °F 80% 30.17 in 10.0 mi SE 3.5 mph - N/A   Clear
4:37 AM 21.2 °F 16.4 °F 17.6 °F 86% 30.17 in 10.0 mi SE 3.5 mph - N/A   Clear
4:58 AM 21.2 °F - 17.6 °F 86% 30.16 in 10.0 mi Calm Calm - N/A   Clear
5:18 AM 21.2 °F - 17.6 °F 86% 30.15 in 10.0 mi Calm Calm - N/A   Clear
5:37 AM 21.2 °F 16.4 °F 15.8 °F 80% 30.15 in 10.0 mi SSE 3.5 mph - N/A   Clear
5:58 AM 21.2 °F 16.4 °F 17.6 °F 86% 30.14 in 10.0 mi South 3.5 mph - N/A   Clear
6:18 AM 23.0 °F - 17.6 °F 80% 30.15 in 10.0 mi Calm Calm - N/A   Clear
6:38 AM 21.2 °F 16.4 °F 17.6 °F 86% 30.15 in 10.0 mi SSE 3.5 mph - N/A   Clear
6:58 AM 23.0 °F - 19.4 °F 86% 30.15 in 10.0 mi Calm Calm - N/A   Clear
7:17 AM 23.0 °F - 19.4 °F 86% 30.15 in 10.0 mi Calm Calm - N/A   Clear
7:38 AM 23.0 °F 18.4 °F 17.6 °F 80% 30.16 in 10.0 mi SE 3.5 mph - N/A   Clear
8:38 AM 26.6 °F 21.2 °F 21.2 °F 80% 30.14 in 10.0 mi SE 4.6 mph - N/A   Clear
8:58 AM 28.4 °F 21.2 °F 21.2 °F 74% 30.14 in 10.0 mi SE 6.9 mph - N/A   Clear
9:18 AM 32.0 °F 25.6 °F 23.0 °F 69% 30.13 in 10.0 mi SE 6.9 mph - N/A   Clear
9:38 AM 32.0 °F 25.6 °F 21.2 °F 64% 30.13 in 10.0 mi SE 6.9 mph - N/A   Clear
9:58 AM 32.0 °F 25.6 °F 21.2 °F 64% 30.13 in 10.0 mi SE 6.9 mph - N/A   Clear
10:17 AM 32.0 °F 23.0 °F 19.4 °F 60% 30.12 in 10.0 mi South 11.5 mph 17.3 mph N/A   Clear
10:38 AM 32.0 °F 22.5 °F 19.4 °F 60% 30.11 in 10.0 mi SSE 12.7 mph 20.7 mph N/A   Clear
10:58 AM 32.0 °F 24.8 °F 17.6 °F 55% 30.10 in 10.0 mi South 8.1 mph 18.4 mph N/A   Clear
11:18 AM 35.6 °F 29.2 °F 17.6 °F 48% 30.09 in 10.0 mi SSE 8.1 mph - N/A   Clear
11:38 AM 35.6 °F 27.5 °F 17.6 °F 48% 30.09 in 10.0 mi SE 11.5 mph - N/A   Clear
11:57 AM 37.4 °F 28.9 °F 17.6 °F 45% 30.07 in 10.0 mi SSE 13.8 mph - N/A   Clear
12:18 PM 37.4 °F 29.8 °F 15.8 °F 41% 30.05 in 10.0 mi SSE 11.5 mph 16.1 mph N/A   Clear
12:38 PM 37.4 °F 28.9 °F 15.8 °F 41% 30.04 in 10.0 mi SE 13.8 mph - N/A   Clear
12:58 PM 39.2 °F 31.2 °F 14.0 °F 36% 30.02 in 10.0 mi SE 13.8 mph - N/A   Clear
1:18 PM 37.4 °F 29.8 °F 14.0 °F 38% 30.02 in 10.0 mi SE 11.5 mph - N/A   Clear
1:37 PM 39.2 °F 30.5 °F 14.0 °F 36% 30.00 in 10.0 mi SE 16.1 mph 20.7 mph N/A   Clear
2:18 PM 39.2 °F 31.6 °F 12.2 °F 33% 29.98 in 10.0 mi SE 12.7 mph - N/A   Clear
2:37 PM 39.2 °F 31.6 °F 12.2 °F 33% 29.97 in 10.0 mi SE 12.7 mph 19.6 mph N/A   Clear
3:18 PM 37.4 °F 28.5 °F 10.4 °F 33% 29.94 in 10.0 mi SSE 15.0 mph 20.7 mph N/A   Clear
3:37 PM 37.4 °F 29.3 °F 12.2 °F 36% 29.94 in 10.0 mi SE 12.7 mph 17.3 mph N/A   Clear
3:58 PM 37.4 °F 28.5 °F 12.2 °F 36% 29.94 in 10.0 mi SE 15.0 mph 19.6 mph N/A   Clear
4:17 PM 37.4 °F 27.8 °F 12.2 °F 36% 29.93 in 10.0 mi SE 17.3 mph - N/A   Clear
4:38 PM 35.6 °F 27.5 °F 12.2 °F 38% 29.92 in 10.0 mi SE 11.5 mph - N/A   Clear
4:58 PM 35.6 °F 27.1 °F 14.0 °F 41% 29.90 in 10.0 mi SE 12.7 mph 20.7 mph N/A   Clear
5:18 PM 35.6 °F 25.9 °F 14.0 °F 41% 29.89 in 10.0 mi SE 16.1 mph 19.6 mph N/A   Clear
5:38 PM 35.6 °F 26.2 °F 14.0 °F 41% 29.88 in 10.0 mi SE 15.0 mph 19.6 mph N/A   Scattered Clouds
5:57 PM 35.6 °F 26.6 °F 14.0 °F 41% 29.88 in 10.0 mi SE 13.8 mph 21.9 mph N/A   Scattered Clouds
6:18 PM 35.6 °F 27.1 °F 14.0 °F 41% 29.87 in 10.0 mi SE 12.7 mph 19.6 mph N/A   Scattered Clouds
6:38 PM 35.6 °F 27.5 °F 15.8 °F 44% 29.86 in 10.0 mi SE 11.5 mph - N/A   Mostly Cloudy
6:57 PM 35.6 °F 27.1 °F 15.8 °F 44% 29.86 in 10.0 mi SE 12.7 mph 25.3 mph N/A   Overcast
7:18 PM 35.6 °F 26.6 °F 19.4 °F 52% 29.85 in 10.0 mi SE 13.8 mph - N/A   Mostly Cloudy
7:38 PM 35.6 °F 27.5 °F 17.6 °F 48% 29.84 in 10.0 mi SE 11.5 mph - N/A   Scattered Clouds
8:18 PM 35.6 °F 29.9 °F 17.6 °F 48% 29.85 in 10.0 mi SSE 6.9 mph 16.1 mph N/A   Scattered Clouds
8:38 PM 35.6 °F 26.6 °F 19.4 °F 52% 29.83 in 10.0 mi SSE 13.8 mph 19.6 mph N/A   Scattered Clouds
9:18 PM 35.6 °F 28.6 °F 19.4 °F 52% 29.83 in 10.0 mi SSE 9.2 mph - N/A   Overcast
9:38 PM 33.8 °F 23.9 °F 21.2 °F 60% 29.82 in 7.0 mi South 15.0 mph 28.8 mph N/A Snow Light Snow
9:57 PM 32.0 °F 24.2 °F 26.6 °F 80% 29.82 in 2.5 mi South 9.2 mph 24.2 mph N/A Snow Light Snow
10:18 PM 32.0 °F 23.6 °F 26.6 °F 80% 29.80 in 1.8 mi SE 10.4 mph - N/A Snow Light Snow
10:38 PM 32.0 °F 23.6 °F 28.4 °F 87% 29.79 in 1.5 mi SE 10.4 mph 16.1 mph N/A Snow Light Snow
10:55 PM 32.0 °F 24.8 °F 28.4 °F 87% 29.77 in 1.2 mi SE 8.1 mph - 0.01 in Snow Light Snow
10:57 PM 32.0 °F 24.8 °F 28.4 °F 87% 29.77 in 1.2 mi SE 8.1 mph - N/A Snow Light Snow
11:18 PM 32.0 °F 24.2 °F 30.2 °F 93% 29.76 in 1.5 mi SE 9.2 mph - N/A Snow Light Snow
11:38 PM 32.0 °F 24.2 °F 30.2 °F 93% 29.74 in 1.5 mi SE 9.2 mph - 0.01 in Snow Light Snow
11:55 PM 32.0 °F 24.8 °F 30.2 °F 93% 29.73 in 1.2 mi SE 8.1 mph - 0.02 in Snow Light Snow
11:58 PM 32.0 °F 24.2 °F 30.2 °F 93% 29.72 in 1.2 mi SE 9.2 mph - N/A Snow Light Snow